Location: Washington
(38.8950°N, 77.0370°W)
Time: 07:19:06
(UTC-05:00)

ISS - All Passes

Search period start: 20 December 2014 00:00
Search period end: 30 December 2014 00:00
Orbit: 404 x 415 km, 51.6° (Epoch: 20 December)

Date Brightness Start Highest point End Pass type
(mag) Time Alt. Az. Time Alt. Az. Time Alt. Az.
20 Dec - 12:19:04 10° SSE 12:20:07 11° SE 12:21:10 10° ESE daylight
20 Dec - 13:52:59 10° WSW 13:56:16 70° NW 13:59:34 10° NE daylight
20 Dec - 15:31:23 10° NW 15:33:21 15° NNW 15:35:18 10° NNE daylight
20 Dec - 18:46:34 10° NNW 18:48:47 17° NNE 18:50:59 10° ENE visible
20 Dec - 20:22:27 10° NW 20:25:44 86° SW 20:28:59 10° SE night (unlit)
21 Dec - 13:02:17 10° SW 13:05:32 59° SE 13:08:47 10° ENE daylight
21 Dec - 14:39:49 10° WNW 14:42:21 20° NNW 14:44:53 10° NNE daylight
21 Dec - 17:56:10 10° NNW 17:57:44 13° NNE 17:59:18 10° NE visible
21 Dec - 19:31:44 10° NW 19:34:56 49° NE 19:38:07 10° ESE visible
21 Dec - 21:09:11 10° W 21:11:13 16° SW 21:13:15 10° SSW night (unlit)
22 Dec - 12:11:53 10° SSW 12:14:49 30° SE 12:17:45 10° ENE daylight
22 Dec - 13:48:24 10° W 13:51:22 30° NNW 13:54:19 10° NNE daylight
22 Dec - 15:28:03 10° NNW 15:28:47 11° N 15:29:30 10° N daylight
22 Dec - 17:05:55 10° N 17:06:36 10° N 17:07:17 10° NNE daylight
22 Dec - 18:41:05 10° NNW 18:44:01 29° NNE 18:46:56 10° E visible
22 Dec - 20:17:40 10° WNW 20:20:34 29° SW 20:23:27 10° SSE night (unlit)
23 Dec - 11:22:02 10° S 11:24:07 16° SE 11:26:13 10° E daylight
23 Dec - 12:57:11 10° WSW 13:00:24 50° NW 13:03:38 10° NE daylight
23 Dec - 14:35:59 10° NW 14:37:36 13° NNW 14:39:12 10° NNE daylight
23 Dec - 17:50:28 10° NNW 17:52:59 20° NNE 17:55:29 10° ENE visible
23 Dec - 19:26:33 10° WNW 19:29:47 59° SW 19:33:00 10° SE visible
24 Dec - 12:06:10 10° SW 12:09:29 86° SE 12:12:47 10° NE daylight
24 Dec - 13:44:10 10° WNW 13:46:25 17° NNW 13:48:40 10° NNE daylight
24 Dec - 16:59:53 10° NNW 17:01:49 15° NNE 17:03:45 10° NE daylight
24 Dec - 18:35:37 10° NW 18:38:53 69° NE 18:42:08 10° ESE visible
24 Dec - 20:14:03 10° WSW 20:15:01 11° SW 20:15:59 10° SW visible
25 Dec - 11:15:26 10° SSW 11:18:34 42° SE 11:21:43 10° ENE daylight
25 Dec - 12:52:29 10° W 12:55:15 24° NNW 12:58:01 10° NNE daylight
25 Dec - 16:09:22 10° N 16:10:34 12° NNE 16:11:46 10° NE daylight
25 Dec - 17:44:46 10° NW 17:47:52 38° NNE 17:50:56 10° ESE visible
25 Dec - 19:21:42 10° W 19:24:15 21° SW 19:26:48 10° S visible
26 Dec - 10:25:05 10° S 10:27:42 22° SE 10:30:19 10° E daylight
26 Dec - 12:01:00 10° WSW 12:04:06 37° NNW 12:07:13 10° NE daylight
26 Dec - 13:40:12 10° NW 13:41:24 12° NNW 13:42:37 10° N daylight
26 Dec - 16:53:58 10° NNW 16:56:43 24° NNE 16:59:27 10° E daylight
26 Dec - 18:30:16 10° WNW 18:33:22 41° SW 18:36:28 10° SSE visible
27 Dec - 09:35:41 10° SSE 09:36:51 11° SE 09:38:00 10° ESE daylight
27 Dec - 11:09:42 10° WSW 11:13:00 69° NW 11:16:17 10° NE daylight
27 Dec - 12:48:06 10° NW 12:50:03 15° NNW 12:52:00 10° NNE daylight
27 Dec - 16:03:11 10° NNW 16:05:26 17° NNE 16:07:41 10° ENE daylight
27 Dec - 17:39:05 10° NW 17:42:22 84° SW 17:45:38 10° SE visible
28 Dec - 10:18:39 10° SW 10:21:54 60° SE 10:25:10 10° ENE daylight
28 Dec - 11:56:11 10° WNW 11:58:42 20° NNW 12:01:14 10° NNE daylight
28 Dec - 15:12:27 10° NNW 15:14:03 13° NNE 15:15:39 10° NE daylight
28 Dec - 16:48:01 10° NW 16:51:14 50° NE 16:54:25 10° ESE daylight
28 Dec - 18:25:28 10° W 18:27:29 15° SW 18:29:30 10° SSW visible
29 Dec - 09:27:55 10° SSW 09:30:51 30° SE 09:33:47 10° ENE daylight
29 Dec - 11:04:25 10° W 11:07:22 29° NNW 11:10:20 10° NNE daylight
29 Dec - 12:44:02 10° NNW 12:44:46 11° N 12:45:30 10° N daylight
29 Dec - 14:21:51 10° N 14:22:34 11° N 14:23:17 10° NNE daylight
29 Dec - 15:57:01 10° NNW 15:59:58 29° NNE 16:02:54 10° E daylight
29 Dec - 17:33:35 10° WNW 17:36:29 29° SW 17:39:22 10° SSE visible
